Starlink 32711

operational
NORAD ID: 62435 Int'l Des: 2024-251 Owner: SPXS Country: US Constellation: starlink
LEOCIRCULAR

Starlink 32711について

説明を読み込み中...

リアルタイム位置

3D地球を読み込み中...

次回通過

高度履歴

Altitude vs Time

uPlot chart will show altitude changes over time

軌道要素

1 62435U 24251D 25353.00304317 .00018916 00000-0 64900-3 0 9997
2 62435 53.1618 350.1777 0000907 71.3083 288.8016 15.30208531 55599
Epoch: Dec 19, 2025 • Age: 15 hours

現在のステータス

高度 480.5 km
速度 7.63 km/s
衛星直下点 -18.14°S, 133.01°W
打ち上げ日 Dec 29, 2024
運用期間 0.9 years
タイプ internet

技術仕様

分類 Payload
質量 730.00 kg
乾燥質量 700.00 kg
総質量 730.00 kg
長さ 0.30 m
直径 4.10 m
スパン 29.00 m
形状 Box + pan
製造者 SPXS
バスタイプ Starlink V2M
フェーズステータス In Orbit
所有者/国 SPXS/US

大規模コンステレーション

Loading constellations...